Regional Weather Roundup
Issued by NWS Albany, NY

Home | Current Version | Previous Version | Graphics & Text | Print | Product List | Glossary Off
Versions: 1 2 3 4 5 6 7 8 9 10 11 12 13 14 15 16 17 18 19 20 21 22 23 24 25 26 27 28 29 30 31 32 33 34 35 36 37 38 39 40 41 42 43 44 45 46 47 48 49 50

000
ASUS41 KALY 220110
RWRALY

NEW YORK STATE HOURLY WEATHER ROUNDUP
NATIONAL WEATHER SERVICE ALBANY NY
900 PM EDT MON JUL 21 2014

NOTE: "FAIR" INDICATES FEW OR NO CLOUDS BELOW 12,000 FEET WITH NO
SIGNIFICANT WEATHER AND/OR NO OBSTRUCTIONS TO VISIBILITY.

NYZ032-033-038>043-046>054-057>066-NYZ062>081-220200-
EAST


CITY           SKY/WX    TMP DP  RH WIND       PRES   REMARKS
ALBANY         MOCLDY    78  63  59 S7        30.12F
GLENS FALLS    MOCLDY    73  66  78 CALM      30.11F
POUGHKEEPSIE   CLOUDY    78  64  61 CALM      30.13S
NEWBURGH       MOCLDY    77  66  69 CALM      30.17R
MONTGOMERY     CLOUDY    76  66  71 CALM      30.14S
WHITE PLAINS   CLEAR     71  62  73 S3        30.16S
ISLIP          PTCLDY    71  63  75 SW6       30.16S
NEW YORK CITY  PTCLDY    73  64  73 S10       30.16R
CENTRAL PARK   CLEAR     74  63  68 CALM      30.19R
$$

NYZ005>009-017-018-044>046-055-056-220200-
CENTRAL


CITY           SKY/WX    TMP DP  RH WIND       PRES   REMARKS
FULTON         CLEAR     72  67  84 CALM      30.11R
SYRACUSE       MOCLDY    78  67  68 N5        30.10S
ROME           PTCLDY    74  69  85 NE3       30.12R
ELMIRA         CLOUDY    78  67  68 SW6       30.13R
BINGHAMTON     CLEAR     73  63  70 S5        30.17S
MONTICELLO     CLEAR     72  64  78 S3        30.20R
$$

NYZ026>034-041>043-220200-
NORTH


CITY           SKY/WX    TMP DP  RH WIND       PRES   REMARKS
WATERTOWN      CLEAR     70  63  78 CALM      30.10S
FORT DRUM      NOT AVBL
MASSENA        CLEAR     74  66  76 SW5       30.09R
SARANAC LAKE   PTCLDY    67  63  87 CALM      30.15R
PLATTSBURGH    CLOUDY    73  66  78 S3        30.08S
$$

NYZ001>004-010>016-019>021-220200-
WEST


CITY           SKY/WX    TMP DP  RH WIND       PRES   REMARKS
NIAGARA FALLS  PTCLDY    75  64  68 S7        30.11R
BUFFALO        PTCLDY    74  55  51 W6        30.12R
DUNKIRK        CLEAR     68  61  78 MISG      30.13S
JAMESTOWN      CLEAR     72  61  68 N3        30.18S
WELLSVILLE     CLOUDY    74  64  71 NE3       30.20R
ROCHESTER      PTCLDY    75  66  73 CALM      30.12R
PENN YAN       PTCLDY    72  69  90 SW3       30.14R FOG
$$

             KEY
       WCI = WIND CHILL INDEX
       VSB = VISIBILITY
       HX  = HEAT INDEX
$$


USA.gov is the U.S. government's official web portal to all federal, state and local government web resources and services.